Flag for Russia Weather past 2 weeks in Novorossiysk, Russia

Now
54 °F

Light rain. Overcast.


Feels Like: 52 °F
Forecast: 46 / 54 °F
Wind: 6 mph from South

Location: Anapa / Vitiazevo

Current Time: Apr 19, 2015 at 12:01:23 AM

Latest Report: Apr 18, 2015 at 11:00 PM


Visibility: N/A

Pressure: 29.77 "Hg

Humidity: 82%

Dew point: 48 °F

Location of NovorossiyskLocation

Historic Weather in Novorossiysk — Graph

°F

Novorossiysk temperature yesterday

Maximum temperature yesterday: 63 °F (at 8:30 AM)
Minimum temperature yesterday: 52 °F (at 9:00 PM)
Average temperature yesterday: 57 °F

Past Weeks' High & Low Weather Summary

 TemperatureHumidityPressure
High68 °F (Apr 13, 2:30 PM)100% (Apr 13, 12:00 AM)30.18 "Hg (Apr 13, 12:00 AM)
Low32 °F (Apr 11, 1:00 AM)29% (Apr 6, 4:30 PM)29.56 "Hg (Apr 7, 9:30 AM)
Average49 °F69%29.99 "Hg
* Reported Apr 3 11:00 PM — Apr 18 11:00 PM, Novorossiysk, Weather by CustomWeather, © 2015

Note: Actual official high and low records may vary slightly from our data, if they occured in-between our weather recording intervals... More about our weather records

Advertising

Novorossiysk weather history for previous 24 hours

 ConditionsComfort  
Time TempWeatherWind HumidityBarometerVisibility
11:00 PM
Sat, Apr 18
54 °FLight rain. Overcast.6 mph82%29.77 "HgN/A
10:00 PM52 °FClear.3 mph88%29.80 "Hg10 mi
9:00 PM52 °FClear.6 mph88%29.77 "Hg10 mi
8:30 PM54 °FClear.10 mph82%29.77 "Hg10 mi
8:00 PM54 °FSunny.8 mph82%29.77 "Hg10 mi
7:30 PM54 °FSunny.8 mph82%29.77 "Hg10 mi
7:00 PM54 °FLight rain. Overcast.10 mph82%29.74 "HgN/A
6:30 PM55 °FLight rain. Overcast.15 mph77%29.77 "HgN/A
6:00 PM54 °FSunny.15 mph82%29.74 "Hg10 mi
5:30 PM55 °FSunny.15 mph77%29.74 "Hg10 mi
5:00 PM54 °FSunny.15 mph82%29.74 "Hg10 mi
4:30 PM55 °FLight rain. Overcast.15 mph82%29.74 "HgN/A
4:00 PM55 °FOvercast.17 mph82%29.74 "HgN/A
3:30 PM55 °FOvercast.22 mph82%29.74 "HgN/A
3:00 PM55 °FSunny.22 mph82%29.74 "Hg10 mi
2:30 PM57 °FSunny.24 mph77%29.74 "Hg10 mi
2:00 PM59 °FSunny.24 mph72%29.74 "Hg10 mi
1:30 PM59 °FSunny.24 mph72%29.74 "Hg10 mi
1:00 PM61 °FSunny.26 mph68%29.74 "Hg10 mi
12:30 PM59 °FSunny.24 mph72%29.74 "Hg10 mi
12:00 PM63 °FSunny.26 mph59%29.74 "Hg10 mi
11:30 AM63 °FSunny.26 mph59%29.77 "Hg10 mi
11:00 AM63 °FSunny.26 mph52%29.77 "Hg10 mi
10:30 AM61 °FSunny.26 mph52%29.77 "Hg10 mi
10:00 AM63 °FSunny.24 mph42%29.77 "Hg10 mi
9:30 AM63 °FSunny.22 mph45%29.77 "Hg10 mi
9:00 AM63 °FSunny.22 mph45%29.77 "Hg10 mi
8:30 AM63 °FSunny.17 mph45%29.80 "Hg10 mi
8:00 AM59 °FSunny.22 mph59%29.80 "Hg10 mi
7:30 AM57 °FSunny.20 mph63%29.83 "Hg10 mi
7:00 AM59 °FSunny.20 mph51%29.83 "Hg10 mi
6:00 AM57 °FClear.20 mph55%29.83 "Hg10 mi
5:00 AM57 °FClear.17 mph51%29.83 "Hg10 mi
4:00 AM55 °FClear.17 mph59%29.86 "Hg10 mi
3:00 AM57 °FClear.17 mph51%29.89 "Hg10 mi
2:00 AM55 °FClear.15 mph59%29.92 "Hg10 mi
1:00 AM54 °FClear.15 mph67%29.92 "Hg10 mi
12:00 AM55 °FClear.20 mph63%29.95 "Hg10 mi
Weather by CustomWeather, © 2015

See weather overviewHow to use our weather pages